OBJECT D

Satellite information

Favourite Embed

Satellite Type and Status

UNKNOWNIN ORBIT

Key statistics

Satellite OBJECT D at a glance.

Uptime

722

Days in orbit

Revolutions

≈ 14.0

Per day

Orbit

LEO

Low Earth Orbit

Inclination

67.1

Latest

Satellite identification and parameters

Extended collection of information and parameters for OBJECT D.

Object identification

Identified? True

Debris? False

Object name: OBJECT D

International designator: 2023-165D

Object number (NORAD): 58428

Object ID (CCSDS): 58428

Country: COMMONWEALTH OF INDEPENDENT STATES (CIS)

Current information (Y/N): Y

RCS size: MEDIUM

Orbital parameters

Period: 103.051 minutes

Inclination: 67.1474 deg

SMA: 7281.062 km

Apoapsis: 912.635 km

Periapsis: 893.219 km

RAAN: 156.8389 deg

Eccentricy: 0.0013333

Argument of periapsis: 186.4401 deg

Mean anomaly: 173.6514 deg

Mean motion: 13.9736755 rev/day

Mean motion (dot): 0.00000066 rev/day2

B* drag term: 0.00010056 1/REarth

Two-line elements (TLE)

Creation date: Oct. 18, 2025, 12:16 a.m.

Reference frame: TEME

Reference center: EARTH

Epoch: Oct. 17, 2025, 8:34 p.m. UTC

TLE line 0: 0 OBJECT D

TLE line 1: 1 58428U 23165D 25290.85745816 .00000066 00000-0 10056-3 0 9993

TLE line 2: 2 58428 67.1474 156.8389 0013333 186.4401 173.6514 13.97367550 96979

Live tracking on map

Real-time ground track for satellite OBJECT D.

In-orbit conjunctions

There are no conjunctions computed for OBJECT D, at the moment. Check back to stay up to date, as we update our databases every day.

Go to all conjunctions

Associated space launch

Note: Payload identity uncertain. Multiple other military payloads that are not identified may be on board. Lotos-S1 spacecraft is a part of the Liana constellation, designed for orbital electronic intelligence.

OBJECT D was lifted into orbit during the mission ‘Soyuz 2.1b | Kosmos 2570 (Lotos-S1 #8)’, on board a Soyuz 2.1b space rocket.

The launch took place on Oct. 27, 2023, 6:04 a.m. from 43/3 (43L).

For more information about the launch, click the button.

Launch to space Soyuz 2.1b | Kosmos 2570 (Lotos-S1 #8)
Soyuz 2.1b | Kosmos 2570 (Lotos-S1 #8)

Agency: N/A

Status: Launch Successful

Launch date: Oct. 27, 2023, 6:04 a.m. UTC

Rocket: Soyuz 2.1b

Launch pad: 43/3 (43L)

Location: Plesetsk Cosmodrome, Russian Federation

...

Latest news about this satellite

There are no fresh news available about this satellite. Check back as we update our databases every day.


Newsletter sign-up

Weekly statistics, charts and insights to help you stay on top of the space industry.